LKKB Weather Reports


time (UTC)temp
C
wind
direction
speed
KPH
gust
KPH
rain 1hr
cm
rain 24hr
cm
rain mn
cm
humidity
%
barometer
mb
20260904111856 25 240 35.4 0.0 0.00 0.00 0.00 53
20260904103103 23 240 35.4 0.0 0.00 0.00 0.00 60 1015.0
20260904102312 23 250 35.4 0.0 0.00 0.00 0.00 57
20260904100103 23 250 35.4 0.0 0.00 0.00 0.00 60 1015.0
20260904093103 23 220 25.7 0.0 0.00 0.00 0.00 60 1016.0
20260904091912 22 230 29.0 0.0 0.00 0.00 0.00 60
20260904090103 22 230 25.7 0.0 0.00 0.00 0.00 64 1016.0
20260904083103 22 230 24.1 0.0 0.00 0.00 0.00 68 1016.0
20260904081911 21 230 19.3 0.0 0.00 0.00 0.00 68
20260904073102 20 210 19.3 0.0 0.00 0.00 0.00 72 1017.0
20260904072112 20 220 22.5 0.0 0.00 0.00 0.00 68
20260904063102 18 210 20.9 0.0 0.00 0.00 0.00 72 1017.0
20260904061856 17 220 19.3 0.0 0.00 0.00 0.00 77
20260904060104 17 220 16.1 0.0 0.00 0.00 0.00 82 1017.0
20260904054302 17 220 20.9 0.0 0.00 0.00 0.00 77 1017.0
20260904053103 17 210 19.3 0.0 0.00 0.00 0.00 77 1017.0
20260904051856 17 210 14.5 0.0 0.00 0.00 0.00 72
20260904043102 17 210 14.5 0.0 0.00 0.00 0.00 82 1017.0
20260904042257 17 200 14.5 0.0 0.00 0.00 0.00 77
20260904040103 17 200 14.5 0.0 0.00 0.00 0.00 82 1017.0
20260904033102 17 200 14.5 0.0 0.00 0.00 0.00 82 1017.0
20260904030103 17 210 14.5 0.0 0.00 0.00 0.00 77 1018.0
20260904023103 17 210 12.9 0.0 0.00 0.00 0.00 82 1018.0
20260904021856 17 210 14.5 0.0 0.00 0.00 0.00 77
20260904013103 17 230 14.5 0.0 0.00 0.00 0.00 77 1018.0
20260904012156 17 230 14.5 0.0 0.00 0.00 0.00 72
20260904010104 17 230 12.9 0.0 0.00 0.00 0.00 77 1018.0
20260904003103 17 210 12.9 0.0 0.00 0.00 0.00 77 1018.0
20260904001856 17 210 19.3 0.0 0.00 0.00 0.00 77
20260904000103 17 210 19.3 0.0 0.00 0.00 0.00 77 1018.0
20260903233103 17 210 16.1 0.0 0.00 0.00 0.00 77 1019.0
20260903231856 17 210 19.3 0.0 0.00 0.00 0.00 77
20260903223102 17 210 16.1 0.0 0.00 0.00 0.00 77 1018.0
20260903222257 18 220 19.3 0.0 0.00 0.00 0.00 68
20260903213102 17 230 16.1 0.0 0.00 0.00 0.00 77 1019.0
20260903211857 18 230 19.3 0.0 0.00 0.00 0.00 68
20260903203103 17 220 16.1 0.0 0.00 0.00 0.00 77 1019.0
20260903201857 17 210 19.3 0.0 0.00 0.00 0.00 72
20260903193103 17 230 16.1 0.0 0.00 0.00 0.00 72 1019.0
20260903192056 18 240 19.3 0.0 0.00 0.00 0.00 63
20260903190103 18 240 16.1 0.0 0.00 0.00 0.00 68 1019.0
20260903183104 18 250 24.1 0.0 0.00 0.00 0.00 68 1019.0
20260903181856 20 260 25.7 0.0 0.00 0.00 0.00 60
20260903173103 21 260 25.7 0.0 0.00 0.00 0.00 56 1019.0
20260903171910 21 260 25.7 0.0 0.00 0.00 0.00 56
20260903170103 21 250 27.4 0.0 0.00 0.00 0.00 56 1019.0
20260903163103 22 250 25.7 0.0 0.00 0.00 0.00 49 1018.0
20260903162211 22 240 22.5 0.0 0.00 0.00 0.00 46
20260903153102 22 240 16.1 0.0 0.00 0.00 0.00 49 1018.0
20260903151856 22 250 19.3 0.0 0.00 0.00 0.00 43
20260903143103 22 260 14.5 0.0 0.00 0.00 0.00 46 1018.0
20260903141856 22 250 14.5 0.0 0.00 0.00 0.00 43
20260903133102 22 250 19.3 0.0 0.00 0.00 0.00 49 1019.0
20260903132058 22 240 22.5 0.0 0.00 0.00 0.00 43
20260903123104 22 250 24.1 0.0 0.00 0.00 0.00 46 1019.0
20260903121856 22 230 22.5 0.0 0.00 0.00 0.00 43
20260903113102 22 240 14.5 0.0 0.00 0.00 0.00 49 1019.0